星链-35098 (STARLINK-35098)

导读 | 豆包AI

STARLINK-35098是美国发射的Starlink星链系列卫星,于2025年9月3日发射升空,属于SpaceX公司打造的星链星座组网卫星。星链系统旨在构建全球卫星互联网,为全球偏远地区、海洋和航空场景提供高速低延迟宽带服务,该卫星入轨后将进一步完善星链星座的全球覆盖能力,推动全球互联网接入普及,拓展卫星互联网应用场景。

基本信息
目录编号:
65476
目录名称:
STARLINK-35098
国际标识:
2025-195U
轨道中心:
EARTH
卫星名称:
星链-35098
卫星全名:
星链-35098 (STARLINK-35098)
卫星状态:
在轨 (已飞行213 天)
发射日期:
2025-09-03 UTC
国别 :
美国 (US)
星等 :
--
轨道信息
数据来源 国际轨道数据 AOE轨道数据
星历时间 2026-04-03T20:57:22+0800
22小时前
查看轨道信息
2026-04-04T05:00:00+0800
14小时前
查看轨道信息
半长轴 6853.426km 6853.409km
偏心率 0.0001148 0.0001154
轨道倾角 53.158° 53.158°
近地点辐角 83.219° 103.853°
升交点赤经 142.376° 140.820°
平近点角 276.894° 303.580°
近地点 474.502km 474.481km
远地点 476.076km 476.063km
周期 94.107分钟 94.107分钟
每日圈数 15.301754 15.301812
详细信息
固有亮度:
5
最大亮度:
2.5
卫星平台:
Starlink V1.0
覆盖范围:
全球
运营商:
太空探索技术公司
运营商所在国:
美国
制造商(研发单位):
太空探索技术公司
制造商所在国:
美国
使用方式:
暂无
卫星简介
Starlink 计划是 SpaceX 推出的全球卫星互联网项目,通过发射低轨道卫星,为全球尤其是偏远地区提供高速、低延迟的互联网服务。自 2019 年起,Starlink 已部署数千颗卫星,旨在缩小全球数字鸿沟,推动互联网普及。该项目还为军事、航空等行业提供通信支持,带来广泛经济效益。
2D轨道图
3D轨道图
轨道高度分析图
轨道倾角分析图
轨道综合分析图
查看轨道综合分析图